Weather History for KBBW - October, 2012

Change the Weather History Date:

Sunday, October 21, 2012

  Actual Average Record
Temperature  
Mean Temperature 53 °F 48 °F  
Max Temperature 71 °F 61 °F 88 °F (1921)
Min Temperature 34 °F 34 °F 8 °F (1987)
Degree Days  
Heating Degree Days 12 17  
Month to date heating degree days 336 292  
Cooling Degree Days 0 0  
Month to date cooling degree days 0 2  
Year to date cooling degree days 1077 764  
Growing Degree Days 4 (Base 50)    
Moisture  
Dew Point 34 °F    
Average Humidity 52    
Maximum Humidity 74    
Minimum Humidity 29    
Precipitation  
Precipitation 0.00 in 0.06 in 1.02 in (2009)
Sea Level Pressure  
Sea Level Pressure 29.73 in    
Wind  
Wind Speed 10 mph (NNE)    
Max Wind Speed 23 mph    
Max Gust Speed 29 mph    
Visibility 10 miles    
Events      
T = Trace of Precipitation, MM = Missing Value Source: NWS Daily Summary

Daily Weather History Graph

Daily Weather History Graph

Search for Another Location

Airport or City:

Trip Planner

Search our weather history database for the weather conditions in past years. The results will help you decide how hot, cold, wet, or windy it might be!

Date:

Astronomy

Oct. 21, 2012 Rise Set
Actual Time 7:57 AM CDT 6:47 PM CDT
Civil Twilight 7:29 AM CDT 7:15 PM CDT
Nautical Twilight 6:57 AM CDT 7:48 PM CDT
Astronomical Twilight 6:25 AM CDT 8:20 PM CDT
Moon 2:21 PM CDT (10/21) No Moon Set
Length of Visible Light 11h 46m
Length of Day
10h 49m
Waxing Crescent, 45% of the Moon is Illuminated
Oct 21
Waxing Crescent
Oct 21
First Quarter
Oct 29
Full
Nov 6
Last Quarter
Nov 13
New

Hourly Weather History & Observations

Time (CDT) Temp. Windchill Dew Point Humidity Pressure Visibility Wind Dir Wind Speed Gust Speed Precip Events Conditions
12:53 AM 53.1 °F - 30.9 °F 43% 29.61 in 10.0 mi South 5.8 mph - N/A   Clear
1:53 AM 48.9 °F - 30.9 °F 50% 29.61 in 10.0 mi Calm Calm - N/A   Clear
2:53 AM 50.0 °F - 30.9 °F 48% 29.61 in 10.0 mi SE 3.5 mph - N/A   Clear
3:53 AM 46.9 °F - 30.0 °F 52% 29.60 in 10.0 mi Calm Calm - N/A   Clear
4:53 AM 37.0 °F - 26.1 °F 65% 29.63 in 10.0 mi Calm Calm - N/A   Clear
5:53 AM 37.9 °F - 28.0 °F 68% 29.64 in 10.0 mi Calm Calm - N/A   Clear
6:53 AM 39.9 °F 36.7 °F 28.9 °F 65% 29.69 in 10.0 mi North 4.6 mph - N/A   Clear
7:53 AM 37.0 °F - 26.1 °F 65% 29.70 in 10.0 mi Calm Calm - N/A   Clear
8:53 AM 43.0 °F - 28.9 °F 58% 29.73 in 10.0 mi Calm Calm - N/A   Clear
9:53 AM 55.9 °F - 33.1 °F 42% 29.72 in 10.0 mi North 19.6 mph 27.6 mph N/A   Clear
10:53 AM 59.0 °F - 34.0 °F 39% 29.75 in 10.0 mi North 18.4 mph - N/A   Clear
11:53 AM 62.1 °F - 36.0 °F 38% 29.75 in 10.0 mi North 17.3 mph - N/A   Clear
12:53 PM 66.0 °F - 37.0 °F 34% 29.74 in 10.0 mi North 13.8 mph - N/A   Clear
1:53 PM 68.0 °F - 37.0 °F 32% 29.74 in 10.0 mi NNE 15.0 mph - N/A   Clear
2:53 PM 70.0 °F - 37.0 °F 30% 29.73 in 10.0 mi NNE 12.7 mph - N/A   Clear
3:53 PM 71.1 °F - 37.0 °F 29% 29.73 in 10.0 mi NE 15.0 mph - N/A   Clear
4:53 PM 70.0 °F - 37.0 °F 30% 29.76 in 10.0 mi NE 12.7 mph - N/A   Clear
5:53 PM 66.9 °F - 37.9 °F 34% 29.78 in 10.0 mi NNE 12.7 mph 19.6 mph N/A   Clear
6:53 PM 62.1 °F - 37.0 °F 39% 29.80 in 10.0 mi NNE 11.5 mph - N/A   Clear
7:53 PM 57.9 °F - 37.9 °F 47% 29.83 in 10.0 mi NNE 11.5 mph - N/A   Clear
8:53 PM 55.0 °F - 37.9 °F 53% 29.85 in 10.0 mi NNE 11.5 mph - N/A   Clear
9:53 PM 54.0 °F - 39.9 °F 59% 29.84 in 10.0 mi NNE 16.1 mph 21.9 mph N/A   Partly Cloudy
10:53 PM 51.1 °F - 41.0 °F 68% 29.85 in 10.0 mi NNE 13.8 mph 24.2 mph N/A   Partly Cloudy
11:53 PM 50.0 °F - 42.1 °F 74% 29.84 in 10.0 mi NNE 11.5 mph - N/A   Mostly Cloudy